Powrót do katalogu

ARIANE 5 DEB

SYLDA

AktywnyHEO
NORAD 41594·DEBRIS·🇫🇷 France

Wystrzelony Jun 18, 2016 z Guiana Space Centre

Loading…

Następne Przeloty (najbliższe 24 godziny)

TLE

ŚwieżeSource: Space-Track

Epoka: Sep 14, 2026, 05:36 UTC

1 41594U 16039D   26257.23357853  .00000936  00000-0  86044-3 0  9993
2 41594   5.9478 198.0467 5694570 217.7890  83.8614  4.39170305120479

Śledź ARIANE 5 DEB w czasie rzeczywistym z AllMySat

Download on the App Store